Location: Newark
(40.1500°N, 18.0667°E)
Time: 21:02:45
(UTC+00:00)

N. Korean satellite - Visible Passes

Search period start: 27 February 2020 00:00
Search period end: 08 March 2020 00:00
Orbit: 456 x 505 km, 97.2° (Epoch: 26 February)

Date Brightness Start Highest point End Pass type
(mag) Time Alt. Az. Time Alt. Az. Time Alt. Az.
27 Feb 8.2 04:10:07 10° NNE 04:13:37 39° E 04:17:03 10° SSE visible
28 Feb 9.6 03:45:15 10° NE 03:47:57 19° E 03:50:37 10° SE visible
29 Feb 6.7 04:52:15 10° N 04:55:52 53° WNW 04:59:25 10° SSW visible
01 Mar 7.0 04:26:40 10° NNE 04:30:21 68° E 04:33:58 10° S visible
02 Mar 8.7 04:01:27 10° NNE 04:04:44 30° E 04:07:58 10° SSE visible
03 Mar 9.9 03:36:52 10° NE 03:39:01 15° E 03:41:09 10° SE visible
04 Mar 6.5 04:43:22 10° N 04:47:02 70° WNW 04:50:37 10° SSW visible
05 Mar 7.6 04:17:53 10° NNE 04:21:29 51° E 04:24:59 10° S visible
06 Mar 9.2 03:52:50 10° NE 03:55:49 23° E 03:58:45 10° SSE visible
07 Mar 10.1 03:28:49 10° ENE 03:30:03 11° E 03:31:17 10° ESE visible
